Dewpoint
3 0 2 1 0 3 11 7 6 6 6 4 5 4 2 0 1 2 -1 -4 -9 -14 -15 -14 -16 -17 -17 -17 -16 -15 -13 -10 -7 -4 0 4 6 6 8 4 6 7 6
0 0 1 -0 -1 7 13 7 6 6 12 10 6 8 0 -10 -13 -15 -16 -16 -15 -15 -17 -19 -19 -19 -19 -19 -18 -16 -14 -10 -7 -4 -1 1 1 5 9 7 -4 -3 -5
0 -0 0 -1 1 11 12 6 9 12 11 11 11 10 -6 -17 -17 -16 -16 -16 -17 -19 -19 -18 -19 -18 -18 -18 -17 -15 -12 -10 -8 -7 -5 6 9 11 11 11 9 10 7
-0 -0 -0 -1 8 12 10 8 12 12 11 13 12 7 -12 -18 -16 -17 -17 -19 -18 -19 -19 -20 -19 -17 -16 -15 -13 -11 -8 -7 3 8 9 10 8 8 10 10 11 9 8
0 -1 -2 4 13 13 8 12 12 12 11 13 9 -6 -18 -16 -17 -18 -18 -18 -18 -20 -20 -19 -18 -16 -14 -10 -8 -6 -3 2 7 8 8 8 9 7 10 6 7 10 8
0 -1 -1 12 13 12 12 12 11 11 10 9 -2 -15 -16 -17 -18 -17 -18 -18 -19 -20 -20 -19 -17 -14 -9 -7 -5 -2 1 2 4 8 9 9 9 9 9 8 5 5 9
0 -1 9 13 13 12 13 9 9 8 7 2 -11 -17 -16 -17 -17 -17 -17 -18 -20 -20 -20 -19 -16 -11 -7 -5 -4 -3 -1 1 2 5 7 9 9 8 9 8 9 9 5
-1 6 13 13 13 13 13 8 8 6 2 -8 -16 -16 -16 -17 -16 -17 -17 -18 -19 -19 -20 -18 -15 -8 -5 -3 -2 -3 -1 2 4 6 4 8 7 9 10 9 9 9 9
-0 10 13 14 13 13 8 7 6 2 -6 -14 -16 -15 -16 -16 -16 -16 -17 -17 -17 -17 -18 -17 -16 -12 -6 -3 -2 -3 -1 4 4 0 -2 7 7 9 9 7 8 8 8
10 12 13 14 14 13 8 7 4 -5 -11 -15 -15 -16 -15 -15 -16 -16 -16 -15 -15 -16 -16 -16 -15 -11 -7 -4 -3 -4 2 5 5 3 1 8 9 9 8 8 8 8 7
11 13 13 13 14 10 8 6 -2 -9 -14 -15 -15 -16 -15 -15 -15 -15 -14 -14 -14 -14 -15 -15 -12 -8 -6 -4 -3 -2 2 4 5 4 5 6 7 7 7 7 7 7 7
12 12 13 14 13 9 8 2 -6 -12 -14 -14 -15 -15 -14 -14 -14 -13 -13 -13 -13 -13 -14 -14 -12 -7 -5 -5 -4 -2 1 4 2 -3 6 7 7 7 6 6 6 6 7
13 12 14 14 11 9 7 -2 -9 -13 -13 -14 -14 -14 -13 -13 -13 -12 -12 -11 -12 -13 -14 -13 -10 -7 -6 -5 -4 -2 -2 -3 -5 -5 2 7 8 8 8 8 7 7 7
13 13 14 13 10 9 5 -5 -11 -12 -13 -14 -13 -13 -13 -12 -12 -11 -10 -11 -11 -12 -13 -12 -11 -9 -7 -6 -4 -3 -4 -5 -6 -4 -2 0 5 7 6 6 6 6 6
13 13 13 12 11 10 3 -7 -11 -11 -13 -13 -12 -11 -11 -11 -11 -11 -9 -10 -10 -12 -12 -13 -11 -11 -8 -6 -4 -3 -4 -4 -7 -6 -4 -4 -3 2 4 5 5 5 5
13 13 13 12 11 10 1 -8 -10 -11 -12 -11 -10 -10 -10 -10 -10 -10 -9 -9 -10 -12 -13 -13 -12 -11 -10 -6 -5 -2 -3 -3 -3 -5 -4 -5 -5 -6 -6 -5 -5 -6 -3
10 13 12 12 12 10 -0 -8 -9 -11 -10 -9 -9 -8 -9 -9 -10 -10 -9 -9 -10 -11 -12 -13 -13 -12 -9 -6 -4 -2 -1 -1 -2 -2 -5 -5 -5 -5 -5 -6 -6 -6 -7
11 13 13 12 12 10 -1 -8 -9 -10 -7 -8 -7 -7 -8 -9 -9 -10 -9 -9 -11 -12 -13 -13 -13 -12 -9 -7 -5 -2 -1 -2 -1 -2 -3 -3 -3 -4 -4 -6 -7 -7 -7
13 13 12 12 12 10 -2 -7 -9 -8 -6 -6 -5 -6 -7 -7 -8 -9 -9 -9 -11 -12 -12 -11 -12 -11 -9 -7 -5 -3 -2 -2 -2 -2 -3 -3 -2 -3 -5 -6 -7 -7 -7
11 11 10 10 12 9 -3 -7 -8 -5 -5 -5 -4 -4 -6 -6 -7 -8 -8 -8 -11 -12 -11 -11 -11 -10 -9 -7 -4 -2 -1 -3 -3 -2 -1 -2 -2 -4 -6 -7 -7 -7 -6
9 8 9 8 9 5 -3 -7 -6 -5 -4 -3 -3 -4 -6 -5 -6 -7 -7 -7 -10 -11 -11 -10 -10 -9 -7 -6 -3 -0 -1 -2 -2 -1 -1 -2 -4 -4 -5 -5 -7 -6 -6
11 10 9 9 8 6 0 -3 -2 -3 -3 -3 -3 -4 -5 -5 -5 -5 -6 -6 -9 -10 -10 -10 -9 -9 -7 -5 -3 -1 -0 0 -0 -1 -1 -2 -1 -1 -3 -5 -6 -6 -6
10 10 10 9 9 6 5 1 -0 -2 -3 -2 -3 -4 -4 -4 -4 -4 -5 -6 -9 -9 -9 -9 -8 -8 -8 -6 -5 -5 -1 -1 -0 -1 -1 -0 -0 -3 -5 -6 -9 -11 -14
11 10 10 9 9 8 8 2 -0 -1 -2 -3 -3 -3 -4 -3 -3 -4 -5 -6 -8 -9 -8 -8 -8 -8 -8 -8 -7 -8 -8 -7 -6 -2 -1 -0 -2 -5 -9 -19 -25 -29 -29
11 10 10 9 9 8 6 6 2 0 -1 -2 -2 -3 -3 -3 -2 -3 -4 -6 -7 -8 -8 -7 -7 -7 -7 -8 -8 -8 -8 -8 -8 -7 -6 -6 -7 -18 -28 -29 -31 -30 -32
10 11 10 10 10 8 7 7 4 1 0 -0 -2 -2 -2 -2 -2 -2 -3 -5 -7 -8 -7 -7 -7 -7 -7 -7 -7 -8 -8 -9 -9 -11 -12 -19 -27 -29 -30 -30 -30 -32 -32
Wind_Speed
34 32 31 28 27 27 23 23 21 19 17 15 14 13 10 8 9 9 8 7 6 5 3 3 3 3 3 3 4 4 5 5 5 5 5 4 3 3 2 3 1 1 0
36 34 32 30 30 28 25 23 20 18 17 15 16 11 8 8 8 8 7 6 4 4 3 3 3 4 5 5 6 7 8 9 8 7 7 6 8 11 11 10 6 2 1
36 35 33 32 32 28 25 23 20 20 18 17 15 10 8 8 8 7 6 6 6 6 6 6 6 7 7 8 8 9 9 9 9 10 11 12 12 14 14 14 12 12 10
35 36 34 34 31 28 27 24 22 22 17 17 14 10 9 8 8 7 8 8 8 7 7 7 8 9 10 10 10 11 14 16 17 15 12 10 9 8 10 13 13 12 12
35 36 35 34 31 29 27 26 24 21 18 17 13 10 10 9 9 9 10 9 9 8 9 9 10 11 11 12 14 15 17 15 16 12 9 11 14 7 7 5 6 11 10
37 36 37 33 31 28 26 26 24 20 18 16 13 12 11 10 10 10 10 9 9 10 10 10 11 12 14 14 15 16 15 15 14 15 14 14 14 13 16 12 6 6 7
38 38 35 33 31 30 27 25 23 20 18 16 14 13 12 11 11 11 10 10 10 10 10 10 12 13 13 14 15 14 14 14 13 13 15 16 14 21 17 10 15 15 13
39 38 33 33 31 29 26 24 22 20 18 17 16 15 14 13 12 12 11 11 11 11 10 11 12 13 14 14 14 14 14 13 12 12 12 16 16 19 15 15 14 14 15
39 35 34 34 31 27 26 24 21 20 19 17 17 16 15 14 14 13 12 11 11 11 10 10 11 11 13 13 13 13 14 13 11 13 14 15 14 17 12 8 11 12 11
36 37 37 35 31 30 26 23 21 20 19 19 18 17 17 16 15 14 13 12 11 11 10 10 10 11 12 13 13 13 14 12 12 11 13 17 15 15 13 12 12 12 12
36 37 37 36 33 30 27 24 22 21 20 20 19 18 17 16 15 15 14 13 12 12 11 10 10 12 12 13 13 13 12 11 10 9 13 14 12 12 13 13 13 13 13
38 40 40 37 34 30 27 26 24 23 22 21 20 19 18 17 16 16 15 14 13 12 12 11 11 13 12 12 13 13 11 9 7 9 13 13 12 12 12 13 14 14 13
41 42 40 37 33 32 29 27 25 23 23 23 21 20 19 17 16 16 15 15 13 12 12 12 13 13 12 12 12 12 11 10 10 10 12 15 13 14 13 13 12 12 13
41 45 40 36 33 31 28 27 25 25 25 25 23 21 19 18 17 17 16 15 14 13 12 12 12 13 13 13 12 12 12 11 11 11 11 10 11 11 11 12 12 13 13
43 44 43 38 34 31 28 27 26 26 26 25 23 21 19 18 17 17 16 15 14 13 12 12 13 13 13 13 13 12 12 11 11 10 10 8 8 9 10 10 10 11 13
41 44 42 39 35 31 29 28 27 26 26 25 23 21 20 17 16 16 16 15 14 13 12 12 12 12 13 13 13 13 11 10 9 9 8 7 7 6 8 10 10 11 12
35 42 41 41 36 32 29 27 27 27 27 25 23 21 19 18 16 16 16 15 14 13 12 12 12 12 12 13 13 12 11 10 8 7 7 6 6 7 9 10 11 12 12
45 48 44 42 37 33 30 28 27 28 26 25 23 21 20 18 17 17 17 16 14 14 13 12 11 12 13 13 12 13 11 10 8 7 6 5 5 6 8 11 11 12 12
47 47 42 38 37 34 31 29 28 28 26 24 23 21 20 19 18 17 17 16 15 14 14 13 12 11 14 14 13 13 12 10 7 6 5 4 4 5 8 10 12 12 13
30 29 11 29 40 33 30 29 29 28 26 26 24 21 20 19 19 19 18 17 17 15 14 14 12 14 14 14 14 13 12 10 6 5 4 3 3 4 7 10 12 13 12
25 20 24 20 20 29 30 31 31 31 30 27 25 22 21 20 20 19 19 18 18 16 15 13 14 14 16 17 17 15 13 8 6 6 5 3 1 4 8 12 13 13 13
29 34 36 27 25 17 27 33 32 30 28 26 25 23 22 21 20 19 19 18 17 16 16 14 12 14 16 18 16 15 11 9 9 7 6 5 3 6 10 14 15 14 14
30 32 34 35 37 24 29 29 30 29 27 28 28 27 25 22 20 18 18 17 17 16 15 15 13 12 15 17 15 8 7 6 14 11 9 7 6 7 12 15 15 15 15
29 30 35 36 41 29 35 34 30 32 34 35 31 27 25 24 21 19 18 18 17 17 16 15 14 13 11 12 16 12 8 8 8 7 9 9 7 11 14 13 12 14 16
28 32 34 35 34 34 36 46 40 35 36 33 30 29 27 25 23 21 20 19 18 17 15 14 13 12 11 10 9 10 7 5 4 4 6 7 8 10 11 11 14 14 18
28 33 34 36 37 41 32 42 46 39 36 32 32 32 30 28 26 24 21 19 18 17 15 14 13 11 10 8 8 6 4 3 3 2 4 7 9 9 12 13 11 18 18
Wind_Direction
182 180 172 173 171 164 170 169 166 163 167 168 163 152 157 172 185 194 203 213 224 230 221 195 182 156 143 138 135 128 133 141 146 145 143 138 105 66 37 2 294 296 194
176 178 174 172 170 163 174 169 164 163 163 162 157 157 168 177 181 186 192 197 199 184 160 146 131 118 114 112 108 108 108 107 110 107 103 92 65 61 61 57 60 85 179
178 175 173 173 168 172 172 167 163 166 169 167 167 170 178 177 176 179 174 168 162 151 140 131 123 117 114 111 112 109 106 104 100 100 102 101 98 93 85 77 76 65 53
179 175 173 171 168 174 171 167 173 178 175 176 177 181 181 173 170 164 157 151 144 137 128 123 118 113 113 113 112 108 107 111 107 107 109 104 99 130 108 98 80 78 78
180 176 172 169 173 176 173 173 180 180 181 181 185 186 176 171 164 156 149 142 136 131 125 121 113 110 110 110 107 109 117 114 108 110 112 89 76 98 101 89 105 90 90
179 175 172 173 176 176 177 178 182 183 182 185 188 182 172 167 159 151 143 136 131 126 120 114 109 108 112 111 110 112 112 106 108 99 103 92 90 82 72 63 78 100 92
177 173 171 175 177 178 179 181 183 185 187 187 184 177 170 164 156 148 141 136 132 125 120 114 107 109 113 115 114 115 118 115 109 106 96 88 79 86 80 80 67 59 60
177 172 174 179 181 184 177 184 185 187 188 185 180 174 168 162 154 147 143 139 133 124 122 116 112 115 118 120 118 117 120 114 107 102 91 85 95 88 89 85 84 79 72
177 176 177 182 184 181 185 186 188 189 186 182 178 174 168 162 155 149 143 138 133 125 121 115 115 116 120 124 121 121 123 117 114 95 81 86 82 97 94 98 78 71 81
177 180 182 185 189 186 186 189 189 188 185 182 179 175 169 164 158 151 144 138 132 126 123 118 119 122 123 124 123 125 126 116 99 89 73 93 88 80 81 78 75 60 57
183 187 187 187 188 189 186 187 189 187 185 183 179 175 170 164 157 152 147 141 137 132 127 127 127 129 131 127 122 125 127 115 105 89 83 91 93 85 75 73 69 61 50
187 192 192 190 195 187 187 188 187 186 185 182 179 175 170 165 161 156 151 147 143 138 133 130 128 132 131 126 122 125 128 125 107 93 92 90 77 75 70 71 62 59 57
192 193 192 196 194 190 190 189 188 185 183 180 178 175 171 168 165 160 156 151 148 141 135 131 129 132 133 129 125 127 123 118 106 103 102 95 83 74 69 65 63 60 53
196 195 193 197 195 193 193 190 189 186 184 182 178 176 174 172 169 165 161 157 153 146 142 136 134 134 136 133 129 127 120 114 105 102 100 96 93 77 66 59 56 49 41
200 198 198 197 198 194 194 192 190 188 186 183 178 174 175 176 173 169 166 163 158 153 148 143 141 138 138 137 134 128 123 118 103 98 100 95 93 80 66 58 53 48 46
211 201 196 199 199 196 195 194 191 189 186 184 182 179 175 177 177 174 172 167 164 158 154 150 145 141 142 141 139 135 132 126 115 96 107 92 87 73 52 45 40 35 31
221 209 203 200 198 197 196 195 192 189 188 186 184 181 179 175 176 176 176 172 169 162 161 155 150 148 150 146 145 142 138 130 124 108 107 96 88 66 48 38 31 24 21
210 211 199 200 197 195 195 195 192 191 189 188 188 184 180 176 176 177 178 177 173 168 165 162 159 156 157 152 149 147 145 139 132 113 106 95 82 59 39 28 22 18 15
206 207 203 200 201 196 194 193 193 191 191 190 190 186 183 178 177 180 180 180 178 175 169 167 167 164 159 156 154 153 150 143 134 124 122 99 71 50 29 21 14 8 6
171 185 211 199 195 195 194 192 191 192 192 194 193 190 188 183 181 182 184 184 181 179 176 171 172 164 162 161 157 154 154 155 152 151 148 119 75 27 13 8 360 356 355
218 230 235 244 208 184 192 192 194 196 194 193 192 192 191 190 187 186 189 187 185 180 177 173 173 169 163 162 161 152 149 157 166 160 159 154 70 355 353 350 346 343 342
214 205 210 205 216 248 200 194 200 200 196 195 193 193 195 196 193 191 193 191 187 185 179 176 179 174 169 165 172 159 146 150 169 179 183 198 283 336 336 338 335 333 332
208 211 204 202 197 193 223 202 201 201 198 198 200 196 194 197 198 195 192 193 189 186 187 181 178 182 187 181 184 179 168 184 185 207 217 238 290 326 332 330 328 328 331
212 214 208 204 202 206 211 204 204 204 204 205 202 195 195 196 196 194 193 193 191 188 189 186 185 188 188 185 181 202 194 172 176 177 213 234 261 313 320 323 328 331 334
219 211 212 212 200 200 200 204 201 206 208 210 201 201 198 196 193 195 193 193 194 190 188 188 186 184 184 193 193 175 163 172 180 178 192 231 270 305 323 325 329 331 328
219 218 213 210 202 192 198 201 202 207 212 207 204 203 200 197 194 194 192 192 193 191 190 190 184 181 182 182 186 175 187 201 221 255 272 290 311 322 329 327 326 327 326
Height
1492 1496 1501 1505 1510 1514 1517 1520 1522 1524 1526 1527 1529 1531 1532 1533 1534 1536 1537 1538 1539 1539 1540 1540 1540 1540 1540 1541 1541 1542 1542 1543 1543 1544 1544 1545 1545 1545 1545 1546 1546 1547 1546
1489 1494 1499 1504 1509 1513 1517 1519 1522 1524 1526 1527 1529 1531 1532 1533 1534 1535 1536 1537 1538 1538 1539 1539 1540 1540 1540 1541 1541 1542 1542 1543 1543 1544 1545 1545 1546 1546 1547 1546 1546 1546 1546
1488 1492 1497 1503 1508 1512 1516 1519 1522 1524 1525 1527 1529 1530 1532 1533 1534 1535 1536 1537 1538 1538 1539 1539 1540 1540 1541 1541 1542 1542 1543 1543 1544 1545 1545 1546 1548 1548 1548 1547 1548 1547 1546
1488 1492 1496 1502 1507 1511 1515 1518 1521 1523 1525 1527 1529 1530 1531 1533 1534 1535 1536 1537 1537 1538 1539 1539 1540 1540 1541 1542 1542 1543 1543 1544 1545 1546 1546 1547 1548 1548 1548 1548 1548 1548 1547
1488 1492 1496 1502 1506 1510 1514 1516 1519 1522 1524 1526 1528 1529 1531 1532 1534 1535 1536 1536 1537 1538 1539 1540 1540 1541 1541 1542 1543 1543 1544 1545 1546 1547 1547 1548 1549 1548 1548 1548 1548 1547 1547
1488 1492 1497 1501 1505 1510 1513 1515 1518 1521 1523 1525 1527 1529 1530 1532 1533 1535 1536 1536 1537 1538 1539 1539 1540 1541 1542 1543 1544 1545 1545 1546 1547 1547 1548 1549 1549 1549 1549 1548 1547 1546 1546
1488 1492 1497 1501 1505 1508 1512 1514 1517 1520 1522 1524 1526 1528 1530 1532 1533 1534 1536 1537 1538 1539 1540 1540 1541 1542 1543 1544 1545 1546 1547 1547 1548 1548 1548 1549 1550 1550 1550 1550 1548 1548 1546
1487 1493 1497 1502 1505 1508 1510 1513 1516 1519 1521 1523 1525 1527 1529 1531 1533 1534 1536 1537 1538 1540 1541 1541 1542 1543 1544 1545 1546 1547 1548 1549 1549 1549 1549 1550 1551 1552 1551 1551 1550 1549 1548
1486 1492 1496 1501 1504 1507 1509 1513 1515 1518 1520 1523 1525 1527 1529 1530 1532 1534 1536 1537 1539 1541 1542 1543 1544 1544 1545 1547 1548 1548 1549 1550 1550 1551 1551 1552 1552 1553 1552 1551 1551 1550 1549
1486 1491 1494 1498 1502 1505 1508 1511 1514 1517 1519 1522 1524 1526 1528 1530 1532 1534 1536 1538 1540 1541 1542 1544 1545 1546 1546 1547 1549 1549 1550 1551 1551 1552 1553 1554 1554 1554 1553 1553 1552 1550 1549
1485 1489 1492 1495 1499 1503 1507 1510 1513 1516 1518 1521 1523 1526 1528 1531 1532 1534 1536 1538 1539 1541 1543 1544 1545 1546 1547 1548 1550 1551 1551 1552 1553 1554 1555 1555 1555 1554 1553 1553 1553 1552 1551
1480 1486 1489 1493 1497 1501 1505 1508 1511 1513 1517 1520 1522 1525 1528 1530 1532 1534 1536 1538 1539 1541 1543 1544 1545 1547 1548 1549 1550 1551 1552 1553 1554 1555 1556 1557 1556 1556 1555 1554 1554 1553 1552
1477 1482 1486 1491 1495 1498 1502 1505 1509 1512 1515 1518 1521 1524 1527 1530 1532 1535 1536 1538 1539 1541 1543 1544 1545 1547 1548 1550 1551 1552 1553 1554 1555 1556 1557 1558 1558 1558 1557 1556 1555 1554 1554
1474 1478 1483 1489 1492 1496 1501 1504 1508 1511 1514 1517 1520 1523 1526 1529 1532 1534 1537 1538 1540 1541 1543 1544 1545 1547 1548 1549 1551 1553 1554 1555 1556 1556 1557 1558 1558 1558 1558 1557 1556 1555 1554
1469 1472 1479 1485 1490 1494 1499 1503 1506 1510 1513 1516 1519 1522 1525 1529 1531 1534 1537 1538 1540 1541 1543 1544 1545 1546 1548 1549 1550 1553 1554 1556 1557 1557 1558 1558 1558 1558 1558 1557 1557 1556 1555
1465 1469 1474 1481 1488 1493 1497 1501 1505 1509 1513 1516 1519 1522 1524 1528 1531 1534 1537 1539 1541 1542 1543 1544 1546 1546 1548 1550 1550 1552 1554 1555 1556 1557 1558 1558 1558 1558 1558 1558 1557 1556 1555
1451 1467 1470 1477 1484 1490 1496 1501 1504 1509 1512 1516 1519 1522 1524 1527 1531 1534 1537 1539 1541 1542 1543 1544 1545 1547 1548 1549 1550 1552 1554 1555 1556 1557 1557 1558 1558 1559 1559 1558 1558 1557 1555
1449 1458 1466 1475 1481 1487 1493 1499 1503 1507 1512 1516 1519 1521 1524 1526 1530 1533 1536 1538 1540 1542 1543 1544 1545 1546 1548 1549 1550 1552 1553 1554 1556 1557 1557 1558 1558 1558 1558 1558 1557 1556 1555
1452 1454 1457 1472 1480 1484 1490 1496 1502 1506 1511 1515 1519 1521 1523 1525 1528 1532 1534 1537 1539 1541 1542 1543 1544 1546 1547 1549 1550 1552 1553 1554 1555 1556 1557 1558 1558 1558 1557 1557 1557 1556 1555
1439 1449 1454 1455 1472 1482 1489 1494 1500 1505 1508 1512 1517 1520 1523 1524 1526 1529 1533 1536 1537 1539 1541 1542 1544 1544 1546 1548 1550 1552 1553 1554 1555 1556 1557 1557 1558 1558 1557 1556 1555 1554 1553
1442 1448 1456 1460 1467 1478 1488 1492 1497 1500 1504 1509 1513 1517 1521 1523 1525 1527 1531 1534 1536 1538 1539 1541 1543 1544 1544 1546 1548 1551 1553 1555 1556 1556 1556 1556 1557 1557 1556 1555 1553 1552 1552
1440 1444 1453 1453 1461 1475 1489 1491 1495 1500 1504 1510 1512 1514 1518 1522 1523 1525 1529 1532 1535 1538 1537 1539 1542 1542 1543 1544 1547 1549 1552 1555 1555 1556 1556 1556 1556 1555 1555 1553 1552 1550 1549
1438 1440 1442 1444 1452 1461 1485 1489 1493 1499 1504 1508 1509 1511 1515 1520 1523 1525 1528 1531 1533 1537 1538 1538 1541 1543 1543 1543 1545 1547 1548 1549 1550 1553 1554 1555 1554 1554 1552 1552 1550 1549 1547
1434 1438 1441 1444 1449 1451 1469 1480 1489 1494 1498 1500 1505 1508 1512 1516 1520 1524 1526 1529 1532 1534 1536 1537 1539 1542 1543 1543 1544 1545 1544 1546 1546 1549 1551 1552 1552 1552 1550 1549 1549 1547 1545
1430 1433 1438 1441 1447 1454 1457 1463 1480 1489 1494 1498 1503 1506 1509 1513 1517 1521 1524 1527 1531 1533 1535 1537 1538 1540 1541 1542 1543 1542 1543 1545 1545 1546 1547 1549 1550 1549 1547 1546 1545 1544 1541
1427 1430 1433 1439 1445 1451 1453 1454 1463 1479 1489 1494 1498 1502 1506 1509 1513 1517 1521 1525 1529 1531 1533 1536 1536 1538 1540 1541 1542 1540 1542 1542 1543 1544 1545 1545 1544 1545 1545 1544 1543 1541 1539